| time (UTC) | temp C | wind direction | speed KPH | gust KPH | rain 1hr cm | rain 24hr cm | rain mn cm | humidity % | barometer mb |
| 20260510201508 | 20 | 359 | 0.0 | 0.0 | 0.03 | 0.13 | 0.10 | 86 | 1011.5 |
| 20260510200008 | 21 | 72 | 0.0 | 0.0 | 0.00 | 0.10 | 0.08 | 90 | 1011.4 |
| 20260510194507 | 20 | 71 | 0.0 | 0.0 | 0.03 | 0.10 | 0.08 | 91 | 1011.6 |
| 20260510193006 | 20 | 71 | 0.0 | 0.0 | 0.08 | 0.10 | 0.08 | 90 | 1011.9 |
| 20260510191508 | 20 | 71 | 0.0 | 0.0 | 0.08 | 0.10 | 0.08 | 89 | 1011.9 |
| 20260510190010 | 20 | 72 | 0.0 | 0.0 | 0.08 | 0.10 | 0.08 | 84 | 1012.0 |
| 20260510184505 | 21 | 74 | 0.0 | 0.0 | 0.05 | 0.08 | 0.05 | 77 | 1012.3 |
| 20260510183005 | 22 | 72 | 0.0 | 0.0 | 0.00 | 0.03 | 0.00 | 72 | 1011.9 |
| 20260510181517 | 23 | 72 | 0.0 | 0.0 | 0.00 | 0.03 | 0.00 | 69 | 1012.0 |
| 20260510180004 | 26 | 72 | 0.0 | 0.0 | 0.00 | 0.03 | 0.00 | 61 | 1012.2 |
| 20260510174503 | 27 | 72 | 0.0 | 0.0 | 0.00 | 0.03 | 0.00 | 49 | 1012.0 |
| 20260510173007 | 29 | 72 | 0.0 | 0.0 | 0.00 | 0.03 | 0.00 | 48 | 1012.0 |
| 20260510171601 | 28 | 71 | 0.0 | 0.0 | 0.00 | 0.03 | 0.00 | 49 | 1012.0 |
| 20260510170104 | 28 | 72 | 0.0 | 0.0 | 0.00 | 0.03 | 0.00 | 46 | 1012.1 |
| 20260510164611 | 28 | 67 | 0.0 | 0.0 | 0.00 | 0.03 | 0.00 | 50 | 1012.1 |
| 20260510163102 | 27 | 70 | 0.0 | 0.0 | 0.00 | 0.03 | 0.00 | 52 | 1012.0 |
| 20260510161555 | 27 | 68 | 0.0 | 0.0 | 0.00 | 0.03 | 0.00 | 52 | 1012.1 |
| 20260510160055 | 26 | 66 | 0.0 | 0.0 | 0.00 | 0.03 | 0.00 | 55 | 1012.2 |
| 20260510154547 | 26 | 68 | 0.0 | 0.0 | 0.00 | 0.03 | 0.00 | 57 | 1012.2 |
| 20260510153048 | 25 | 68 | 0.0 | 0.0 | 0.00 | 0.03 | 0.00 | 59 | 1012.3 |
| 20260510151540 | 25 | 68 | 0.0 | 0.0 | 0.00 | 0.03 | 0.00 | 61 | 1012.3 |
| 20260510150036 | 23 | 68 | 0.0 | 0.0 | 0.00 | 0.03 | 0.00 | 66 | 1012.1 |
| 20260510144545 | 23 | 80 | 0.0 | 0.0 | 0.00 | 0.03 | 0.00 | 65 | 1012.2 |
| 20260510143030 | 22 | 79 | 0.0 | 0.0 | 0.00 | 0.03 | 0.00 | 68 | 1012.4 |
| 20260510141527 | 21 | 79 | 0.0 | 0.0 | 0.00 | 0.03 | 0.00 | 71 | 1012.4 |
| 20260510140026 | 20 | 79 | 0.0 | 0.0 | 0.00 | 0.03 | 0.00 | 77 | 1012.4 |
| 20260510134520 | 18 | 79 | 0.0 | 0.0 | 0.00 | 0.03 | 0.00 | 80 | 1012.3 |
| 20260510133016 | 17 | 66 | 0.0 | 0.0 | 0.00 | 0.03 | 0.00 | 83 | 1012.5 |
| 20260510131510 | 16 | 127 | 0.0 | 0.0 | 0.00 | 0.03 | 0.00 | 87 | 1012.3 |
| 20260510130006 | 15 | 127 | 0.0 | 0.0 | 0.00 | 0.03 | 0.00 | 94 | 1012.6 |
| 20260510124502 | 13 | 127 | 0.0 | 0.0 | 0.00 | 0.03 | 0.00 | 98 | 1012.6 |
| 20260510123100 | 12 | 127 | 0.0 | 0.0 | 0.00 | 0.03 | 0.00 | 98 | 1012.4 |
| 20260510121557 | 11 | 127 | 0.0 | 0.0 | 0.00 | 0.03 | 0.00 | 98 | 1012.4 |
| 20260510120054 | 11 | 359 | 0.0 | 0.0 | 0.00 | 0.03 | 0.00 | 98 | 1012.0 |
| 20260510114602 | 10 | 127 | 0.0 | 0.0 | 0.00 | 0.03 | 0.00 | 98 | 1011.8 |
| 20260510113046 | 10 | 127 | 0.0 | 0.0 | 0.00 | 0.03 | 0.00 | 98 | 1011.5 |
| 20260510111546 | 9 | 127 | 0.0 | 0.0 | 0.00 | 0.03 | 0.00 | 97 | 1011.8 |
| 20260510110044 | 8 | 359 | 0.0 | 0.0 | 0.00 | 0.03 | 0.00 | 97 | 1011.5 |
| 20260510104552 | 8 | 359 | 0.0 | 0.0 | 0.00 | 0.03 | 0.00 | 97 | 1011.3 |
| 20260510103045 | 8 | 359 | 0.0 | 0.0 | 0.00 | 0.03 | 0.00 | 97 | 1011.2 |
| 20260510101541 | 8 | 359 | 0.0 | 0.0 | 0.00 | 0.03 | 0.00 | 97 | 1010.8 |
| 20260510100051 | 8 | 359 | 0.0 | 0.0 | 0.00 | 0.03 | 0.00 | 97 | 1010.9 |
| 20260510094546 | 8 | 359 | 0.0 | 0.0 | 0.00 | 0.03 | 0.00 | 97 | 1010.7 |
| 20260510093039 | 8 | 359 | 0.0 | 0.0 | 0.00 | 0.03 | 0.00 | 97 | 1010.5 |
| 20260510091539 | 8 | 359 | 0.0 | 0.0 | 0.00 | 0.03 | 0.00 | 97 | 1010.5 |
| 20260510090041 | 8 | 359 | 0.0 | 0.0 | 0.00 | 0.03 | 0.00 | 96 | 1010.3 |
| 20260510084549 | 7 | 359 | 0.0 | 0.0 | 0.00 | 0.03 | 0.00 | 96 | 1010.9 |
| 20260510083040 | 7 | 359 | 0.0 | 0.0 | 0.00 | 0.03 | 0.00 | 95 | 1010.8 |
| 20260510081535 | 7 | 359 | 0.0 | 0.0 | 0.00 | 0.03 | 0.00 | 94 | 1010.1 |
| 20260510080040 | 7 | 359 | 0.0 | 0.0 | 0.00 | 0.03 | 0.00 | 94 | 1010.0 |
| 20260510074533 | 7 | 359 | 0.0 | 0.0 | 0.00 | 0.03 | 0.00 | 94 | 1010.1 |
| 20260510073035 | 8 | 359 | 0.0 | 0.0 | 0.00 | 0.03 | 0.00 | 94 | 1009.9 |
| 20260510071541 | 8 | 359 | 0.0 | 0.0 | 0.00 | 0.03 | 0.00 | 95 | 1009.7 |
| 20260510070031 | 8 | 359 | 0.0 | 0.0 | 0.00 | 0.03 | 0.00 | 94 | 1009.4 |
| 20260510064529 | 8 | 359 | 0.0 | 0.0 | 0.00 | 0.03 | 0.00 | 94 | 1009.3 |
| 20260510063027 | 8 | 359 | 0.0 | 0.0 | 0.00 | 0.03 | 0.00 | 94 | 1009.4 |
| 20260510061525 | 8 | 359 | 0.0 | 0.0 | 0.00 | 0.03 | 0.00 | 94 | 1009.6 |
| 20260510060025 | 8 | 359 | 0.0 | 0.0 | 0.00 | 0.03 | 0.00 | 94 | 1009.4 |
| 20260510054526 | 8 | 359 | 0.0 | 0.0 | 0.00 | 0.03 | 0.00 | 94 | 1009.7 |
| 20260510053020 | 8 | 359 | 0.0 | 0.0 | 0.00 | 0.03 | 0.00 | 94 | 1009.8 |
| 20260510051523 | 9 | 359 | 0.0 | 0.0 | 0.00 | 0.03 | 0.00 | 94 | 1009.9 |
| 20260510050017 | 9 | 359 | 0.0 | 0.0 | 0.00 | 0.03 | 0.00 | 93 | 1010.0 |
| 20260510044522 | 9 | 359 | 0.0 | 0.0 | 0.00 | 0.03 | 0.00 | 94 | 1010.1 |
| 20260510043015 | 9 | 359 | 0.0 | 0.0 | 0.00 | 0.03 | 0.00 | 93 | 1010.1 |
| 20260510041513 | 10 | 359 | 0.0 | 0.0 | 0.00 | 0.03 | 0.00 | 93 | 1010.1 |
| 20260510040011 | 10 | 359 | 0.0 | 0.0 | 0.00 | 0.03 | 0.00 | 93 | 1010.3 |
| 20260510034512 | 10 | 359 | 0.0 | 0.0 | 0.00 | 0.03 | 0.03 | 93 | 1010.1 |
| 20260510033008 | 10 | 359 | 0.0 | 0.0 | 0.00 | 0.03 | 0.03 | 93 | 1010.1 |
| 20260510031507 | 10 | 359 | 0.0 | 0.0 | 0.00 | 0.03 | 0.03 | 93 | 1010.0 |
| 20260510030006 | 10 | 359 | 0.0 | 0.0 | 0.00 | 0.03 | 0.03 | 93 | 1009.8 |
| 20260510024506 | 10 | 359 | 0.0 | 0.0 | 0.00 | 0.03 | 0.03 | 92 | 1009.6 |
| 20260510023006 | 11 | 359 | 0.0 | 0.0 | 0.00 | 0.03 | 0.03 | 92 | 1009.7 |
| 20260510021503 | 11 | 359 | 0.0 | 0.0 | 0.00 | 0.03 | 0.03 | 92 | 1009.8 |
| 20260510020002 | 11 | 359 | 0.0 | 0.0 | 0.00 | 0.03 | 0.03 | 92 | 1009.6 |
| 20260510014502 | 11 | 359 | 0.0 | 0.0 | 0.00 | 0.03 | 0.03 | 91 | 1009.4 |
| 20260510013001 | 11 | 359 | 0.0 | 0.0 | 0.00 | 0.03 | 0.03 | 91 | 1009.4 |
| 20260510011502 | 12 | 359 | 0.0 | 1.6 | 0.00 | 0.03 | 0.03 | 91 | 1009.3 |
| 20260510010113 | 12 | 359 | 0.0 | 0.0 | 0.00 | 0.03 | 0.03 | 91 | 1009.0 |
| 20260510004605 | 12 | 359 | 0.0 | 0.0 | 0.00 | 0.03 | 0.03 | 91 | 1009.0 |
| 20260510003104 | 12 | 359 | 0.0 | 0.0 | 0.00 | 0.03 | 0.03 | 90 | 1009.0 |
| 20260510001559 | 12 | 359 | 0.0 | 0.0 | 0.00 | 0.03 | 0.03 | 89 | 1009.0 |
| 20260510000123 | 13 | 359 | 0.0 | 0.0 | 0.00 | 0.03 | 0.03 | 88 | 1008.9 |
| 20260509234606 | 13 | 359 | 0.0 | 0.0 | 0.00 | 0.03 | 0.03 | 87 | 1009.0 |
| 20260509233057 | 13 | 359 | 0.0 | 0.0 | 0.00 | 0.03 | 0.03 | 87 | 1008.9 |
| 20260509231558 | 13 | 359 | 0.0 | 0.0 | 0.00 | 0.03 | 0.03 | 87 | 1009.0 |
| 20260509224556 | 14 | 359 | 0.0 | 0.0 | 0.00 | 0.03 | 0.03 | 88 | 1008.8 |
| 20260509223056 | 14 | 359 | 0.0 | 0.0 | 0.00 | 0.03 | 0.03 | 88 | 1008.9 |
| 20260509221608 | 14 | 359 | 0.0 | 0.0 | 0.00 | 0.03 | 0.03 | 88 | 1009.0 |
| 20260509220105 | 14 | 359 | 0.0 | 0.0 | 0.00 | 0.03 | 0.03 | 90 | 1008.9 |
| 20260509214554 | 13 | 359 | 0.0 | 0.0 | 0.00 | 0.03 | 0.03 | 89 | 1009.0 |
| 20260509213054 | 14 | 359 | 0.0 | 0.0 | 0.03 | 0.03 | 0.03 | 89 | 1009.0 |
| 20260509211553 | 14 | 359 | 0.0 | 0.0 | 0.03 | 0.03 | 0.03 | 89 | 1008.9 |
| 20260509210058 | 14 | 359 | 0.0 | 0.0 | 0.03 | 0.03 | 0.03 | 86 | 1008.9 |
| 20260509204558 | 15 | 359 | 0.0 | 0.0 | 0.03 | 0.03 | 0.03 | 82 | 1008.9 |
| 20260509203054 | 16 | 359 | 0.0 | 0.0 | 0.00 | 0.00 | 0.00 | 78 | 1009.0 |